Kangerlussuaq

KL  EN  DA
ASIAQ
Weather Now GREENLAND SURVEY
Updated [WGT/WGST] Temperature [°C] Wind [m/s] Air pressure [hPa] Relative humidity [%] Precipitation [mm]
Present Wind chill Speed Max
18.04 00:00-14,7-22,54,2 ⇐5,1101360n/a
17.04 23:00-14,4-22,14,1 ⇐4,8101260n/a
17.04 22:00-13,7-21,84,7 ⇐5,0101257n/a
17.04 21:00-13,4-17,91,9 ⇐2,5101254n/a
17.04 20:00-12,3-18,93,5 ⇐4,0101150n/a
17.04 19:00-10,7-17,23,8 ⇙5,4101144n/a
17.04 18:00-10,8-18,04,5 ⇐5,4101047n/a
17.04 17:00-10,6-17,74,4 ⇐5,5101044n/a
17.04 16:00-10,9-18,14,5 ⇐6,1100942n/a
17.04 15:00-11,4-18,74,5 ⇐5,8100943n/a
17.04 14:00-11,7-18,84,1 ⇐5,3100943n/a
17.04 13:00-12,5-20,54,9 ⇐6,3100945n/a
17.04 12:00-13,2-20,84,3 ⇐5,7100946n/a
17.04 11:00-14,1-22,85,3 ⇐6,6100849n/a
17.04 10:00-15,2-22,83,9 ⇐5,0100852n/a
17.04 09:00-16,2-24,24,0 ⇐4,8100853n/a
17.04 08:00-17,0-26,04,8 ⇐5,5100856n/a
17.04 07:00-17,4-25,74,0 ⇐4,6100759n/a
17.04 06:00-18,3-26,84,0 ⇐4,9100663n/a
17.04 05:00-18,7-27,44,1 ⇐4,6100667n/a
17.04 04:00-18,2-26,33,7 ⇐4,0100569n/a
17.04 03:00-18,2-26,43,8 ⇐4,5100571n/a
17.04 02:00-18,7-26,13,1 ⇙4,3100573n/a
17.04 01:00-18,2-23,72,0 ⇙3,1100475n/a
17.04 00:00-17,1-23,12,4 ⇙3,2100472n/a
Position: (67.013333333333,-50.72712222)

[Back]